Location: A�t �Alizem
(31.2076°N, 8.7872°W)
Time: 06:54:24
(UTC+00:00)

deb Explorer IX - Pass Details

Date: 26 June 2021
Orbit: 541 x 1234 km, 38.9° (Epoch: 01 August)

Event Time Altitude Azimuth Distance (km) Brightness Sun altitude
Exits shadow 02:07:54 24° 316° (NW) 1,553 ? -31.3°
Maximum altitude 02:10:41 41° 12° (NNE) 1,172 ? -31.1°
Drops below altitude 10° 02:16:38 10° 81° (E) 2,668 ? -30.5°
Sets 02:19:41 0° 88° (E) 3,735 ? -30.3°
